QPF
0.01 0.01 0.01 0.01 0.01 0.01 0.02 0.02 0.02 0.01 0.01 0.00 0.00 0.00 0.01 0.00 0.00 0.00 0.00 0.00 0.01 0.01 0.01 0.03 0.04 0.05 0.05 0.04 0.03 0.03 0.03 0.02 0.02 0.01 0.01 0.01 0.01 0.01 0.02 0.01 0.01 0.01 0.00 0.00
0.01 0.01 0.01 0.01 0.01 0.01 0.01 0.02 0.01 0.02 0.01 0.01 0.00 0.00 0.01 0.00 0.00 0.00 0.00 0.00 0.00 0.00 0.00 0.02 0.03 0.03 0.03 0.04 0.03 0.02 0.02 0.02 0.02 0.02 0.01 0.01 0.01 0.01 0.01 0.01 0.00 0.00 0.00 0.00
0.01 0.01 0.01 0.00 0.01 0.01 0.01 0.01 0.01 0.03 0.02 0.01 0.01 0.02 0.01 0.01 0.00 0.00 0.00 0.00 0.00 0.00 0.01 0.01 0.03 0.03 0.02 0.03 0.03 0.02 0.02 0.02 0.02 0.02 0.02 0.01 0.01 0.01 0.01 0.01 0.00 0.00 0.00 0.00
0.01 0.01 0.00 0.00 0.00 0.01 0.01 0.00 0.00 0.01 0.03 0.03 0.02 0.03 0.01 0.01 0.00 0.00 0.00 0.00 0.00 0.00 0.00 0.01 0.02 0.02 0.03 0.03 0.04 0.03 0.02 0.02 0.02 0.02 0.02 0.02 0.01 0.01 0.01 0.01 0.00 0.00 0.00 0.00
0.00 0.00 0.00 0.00 0.00 0.01 0.01 0.00 0.00 0.01 0.01 0.01 0.01 0.01 0.01 0.00 0.00 0.00 0.00 0.00 0.00 0.00 0.00 0.01 0.01 0.01 0.02 0.03 0.04 0.05 0.02 0.02 0.03 0.03 0.03 0.02 0.02 0.01 0.01 0.01 0.00 0.00 0.00 0.00
0.00 0.00 0.00 0.00 0.00 0.00 0.01 0.01 0.00 0.01 0.01 0.01 0.01 0.00 0.00 0.00 0.00 0.00 0.00 0.00 0.00 0.00 0.00 0.00 0.00 0.00 0.01 0.01 0.02 0.05 0.04 0.02 0.03 0.03 0.04 0.03 0.03 0.02 0.02 0.01 0.00 0.00 0.00 0.00
0.00 0.00 0.00 0.00 0.00 0.00 0.01 0.01 0.02 0.02 0.01 0.01 0.00 0.00 0.00 0.00 0.00 0.00 0.00 0.00 0.00 0.00 0.00 0.00 0.00 0.00 0.00 0.01 0.02 0.02 0.03 0.03 0.02 0.02 0.03 0.04 0.03 0.03 0.03 0.02 0.00 0.00 0.00 0.00
0.00 0.00 0.00 0.00 0.01 0.01 0.00 0.01 0.01 0.01 0.01 0.00 0.00 0.01 0.00 0.00 0.00 0.00 0.00 0.00 0.00 0.00 0.00 0.00 0.00 0.00 0.00 0.00 0.01 0.02 0.02 0.02 0.02 0.02 0.02 0.03 0.03 0.03 0.02 0.02 0.01 0.00 0.00 0.01
0.00 0.00 0.00 0.00 0.00 0.00 0.00 0.00 0.01 0.01 0.00 0.00 0.00 0.00 0.00 0.00 0.00 0.00 0.00 0.00 0.00 0.00 0.00 0.00 0.00 0.00 0.00 0.00 0.00 0.00 0.01 0.02 0.03 0.02 0.02 0.01 0.02 0.02 0.01 0.01 0.00 0.00 0.00 0.00
0.00 0.00 0.00 0.00 0.00 0.00 0.00 0.00 0.01 0.01 0.01 0.00 0.00 0.00 0.00 0.00 0.00 0.00 0.00 0.00 0.00 0.00 0.00 0.00 0.00 0.00 0.00 0.00 0.00 0.00 0.00 0.01 0.02 0.02 0.02 0.01 0.01 0.01 0.01 0.00 0.00 0.00 0.00 0.00
0.00 0.00 0.00 0.00 0.00 0.00 0.00 0.00 0.00 0.01 0.00 0.00 0.00 0.00 0.00 0.00 0.00 0.00 0.00 0.00 0.00 0.00 0.00 0.00 0.00 0.00 0.00 0.00 0.00 0.00 0.00 0.00 0.01 0.02 0.01 0.01 0.01 0.01 0.01 0.00 0.00 0.00 0.00 0.00
0.00 0.00 0.00 0.00 0.00 0.00 0.00 0.00 0.00 0.01 0.00 0.00 0.00 0.00 0.00 0.00 0.00 0.00 0.00 0.00 0.00 0.00 0.00 0.00 0.00 0.00 0.00 0.00 0.00 0.00 0.00 0.00 0.01 0.01 0.01 0.01 0.01 0.01 0.00 0.00 0.00 0.00 0.00 0.00
0.00 0.01 0.01 0.00 0.00 0.00 0.00 0.00 0.00 0.00 0.01 0.01 0.01 0.00 0.00 0.00 0.00 0.00 0.00 0.00 0.00 0.00 0.00 0.00 0.00 0.00 0.00 0.00 0.00 0.00 0.00 0.00 0.01 0.01 0.00 0.00 0.00 0.00 0.00 0.00 0.00 0.00 0.00 0.00
0.01 0.01 0.01 0.00 0.00 0.00 0.00 0.00 0.00 0.01 0.01 0.01 0.00 0.00 0.00 0.00 0.00 0.00 0.00 0.00 0.00 0.00 0.00 0.00 0.00 0.00 0.00 0.00 0.00 0.00 0.00 0.00 0.01 0.01 0.00 0.00 0.00 0.00 0.00 0.00 0.00 0.00 0.00 0.00
0.01 0.01 0.00 0.00 0.00 0.00 0.00 0.00 0.00 0.01 0.01 0.01 0.00 0.00 0.00 0.00 0.00 0.00 0.00 0.00 0.00 0.00 0.00 0.00 0.00 0.00 0.00 0.00 0.00 0.00 0.00 0.00 0.00 0.00 0.00 0.00 0.00 0.00 0.00 0.00 0.00 0.00 0.00 0.00
0.01 0.01 0.01 0.00 0.00 0.00 0.00 0.00 0.00 0.00 0.00 0.00 0.00 0.00 0.00 0.00 0.00 0.00 0.00 0.00 0.00 0.00 0.00 0.00 0.00 0.00 0.00 0.00 0.00 0.00 0.01 0.00 0.00 0.00 0.00 0.00 0.00 0.00 0.00 0.00 0.00 0.00 0.00 0.00
0.02 0.02 0.02 0.01 0.00 0.00 0.00 0.00 0.00 0.00 0.00 0.00 0.00 0.00 0.00 0.00 0.00 0.00 0.00 0.00 0.00 0.00 0.00 0.00 0.00 0.00 0.00 0.00 0.00 0.00 0.01 0.01 0.01 0.00 0.00 0.00 0.00 0.00 0.00 0.00 0.00 0.00 0.00 0.00
0.01 0.01 0.03 0.02 0.01 0.01 0.00 0.00 0.00 0.00 0.00 0.00 0.00 0.00 0.00 0.00 0.00 0.00 0.00 0.00 0.00 0.00 0.00 0.00 0.00 0.00 0.00 0.00 0.00 0.00 0.00 0.01 0.01 0.01 0.00 0.00 0.00 0.00 0.00 0.00 0.00 0.00 0.00 0.00
0.00 0.01 0.03 0.03 0.01 0.00 0.00 0.00 0.00 0.00 0.01 0.01 0.00 0.00 0.00 0.00 0.00 0.00 0.00 0.00 0.00 0.00 0.00 0.00 0.00 0.00 0.00 0.00 0.00 0.00 0.00 0.01 0.01 0.01 0.01 0.00 0.00 0.00 0.00 0.00 0.01 0.01 0.01 0.01
0.00 0.01 0.03 0.03 0.02 0.00 0.00 0.00 0.00 0.00 0.01 0.01 0.00 0.00 0.00 0.00 0.00 0.00 0.00 0.00 0.00 0.00 0.00 0.00 0.00 0.00 0.00 0.00 0.00 0.00 0.00 0.00 0.00 0.00 0.00 0.00 0.00 0.00 0.00 0.00 0.01 0.01 0.01 0.01
0.00 0.01 0.02 0.02 0.02 0.01 0.00 0.00 0.00 0.01 0.01 0.00 0.00 0.00 0.00 0.00 0.00 0.00 0.00 0.00 0.00 0.00 0.00 0.00 0.00 0.00 0.00 0.00 0.00 0.00 0.00 0.00 0.00 0.00 0.00 0.00 0.00 0.00 0.00 0.00 0.01 0.01 0.01 0.01
0.00 0.01 0.01 0.01 0.02 0.01 0.00 0.00 0.01 0.01 0.00 0.00 0.00 0.00 0.00 0.00 0.00 0.00 0.00 0.00 0.00 0.00 0.00 0.00 0.00 0.00 0.00 0.00 0.00 0.00 0.00 0.00 0.00 0.00 0.00 0.00 0.00 0.00 0.00 0.00 0.00 0.01 0.01 0.01
0.00 0.01 0.01 0.01 0.01 0.00 0.00 0.00 0.00 0.00 0.00 0.00 0.00 0.00 0.00 0.00 0.00 0.00 0.00 0.00 0.00 0.00 0.00 0.00 0.00 0.00 0.00 0.00 0.00 0.00 0.00 0.00 0.00 0.00 0.00 0.00 0.01 0.01 0.01 0.01 0.01 0.01 0.02 0.01
0.00 0.00 0.01 0.01 0.00 0.00 0.00 0.00 0.00 0.00 0.00 0.00 0.00 0.00 0.00 0.00 0.00 0.00 0.00 0.00 0.00 0.00 0.00 0.00 0.00 0.00 0.00 0.00 0.00 0.00 0.00 0.00 0.00 0.00 0.00 0.00 0.00 0.01 0.01 0.01 0.02 0.02 0.02 0.01
0.01 0.01 0.01 0.01 0.00 0.00 0.00 0.00 0.00 0.00 0.00 0.00 0.00 0.00 0.00 0.00 0.00 0.00 0.00 0.00 0.00 0.00 0.00 0.00 0.00 0.00 0.00 0.00 0.00 0.00 0.00 0.00 0.00 0.00 0.00 0.00 0.00 0.01 0.01 0.01 0.02 0.02 0.02 0.01
0.00 0.00 0.01 0.01 0.01 0.01 0.00 0.00 0.00 0.00 0.00 0.00 0.00 0.00 0.00 0.00 0.00 0.00 0.00 0.00 0.00 0.00 0.00 0.00 0.00 0.00 0.00 0.00 0.00 0.00 0.00 0.00 0.00 0.00 0.00 0.00 0.00 0.01 0.01 0.01 0.01 0.01 0.01 0.01
MSLP
1017.55 1017.66 1017.67 1017.54 1017.27 1016.88 1016.41 1015.91 1015.43 1015.01 1014.70 1014.52 1014.48 1014.58 1014.80 1015.11 1015.48 1015.88 1016.27 1016.63 1016.94 1017.18 1017.36 1017.49 1017.57 1017.64 1017.70 1017.80 1017.92 1018.10 1018.33 1018.60 1018.89 1019.17 1019.43 1019.64 1019.77 1019.84 1019.84 1019.79 1019.73 1019.67 1019.64 1019.66
1018.40 1018.46 1018.39 1018.19 1017.86 1017.45 1016.98 1016.51 1016.07 1015.70 1015.41 1015.22 1015.14 1015.15 1015.26 1015.44 1015.68 1015.97 1016.28 1016.59 1016.88 1017.13 1017.34 1017.49 1017.59 1017.66 1017.72 1017.80 1017.92 1018.09 1018.33 1018.62 1018.94 1019.27 1019.56 1019.80 1019.95 1020.01 1020.00 1019.92 1019.83 1019.74 1019.69 1019.71
1019.08 1019.07 1018.94 1018.68 1018.34 1017.94 1017.52 1017.12 1016.76 1016.45 1016.19 1015.98 1015.81 1015.69 1015.62 1015.61 1015.67 1015.79 1015.98 1016.23 1016.50 1016.78 1017.03 1017.25 1017.41 1017.53 1017.62 1017.72 1017.84 1018.01 1018.26 1018.56 1018.90 1019.26 1019.59 1019.85 1020.03 1020.11 1020.11 1020.03 1019.94 1019.85 1019.80 1019.81
1019.52 1019.44 1019.25 1018.97 1018.65 1018.32 1018.01 1017.74 1017.50 1017.28 1017.05 1016.80 1016.53 1016.24 1015.95 1015.70 1015.52 1015.44 1015.48 1015.64 1015.89 1016.20 1016.52 1016.83 1017.09 1017.29 1017.45 1017.58 1017.72 1017.90 1018.14 1018.44 1018.79 1019.16 1019.51 1019.81 1020.02 1020.14 1020.16 1020.11 1020.04 1019.97 1019.93 1019.96
1019.74 1019.59 1019.36 1019.10 1018.84 1018.62 1018.47 1018.36 1018.28 1018.17 1017.99 1017.71 1017.32 1016.84 1016.31 1015.79 1015.35 1015.04 1014.91 1014.96 1015.18 1015.51 1015.91 1016.32 1016.69 1016.99 1017.23 1017.41 1017.58 1017.76 1017.99 1018.28 1018.62 1018.99 1019.35 1019.67 1019.92 1020.07 1020.14 1020.14 1020.10 1020.07 1020.06 1020.11
1019.80 1019.59 1019.35 1019.13 1018.97 1018.91 1018.94 1019.03 1019.12 1019.14 1019.02 1018.71 1018.21 1017.54 1016.76 1015.97 1015.26 1014.71 1014.40 1014.32 1014.48 1014.83 1015.29 1015.79 1016.26 1016.66 1016.98 1017.21 1017.40 1017.59 1017.80 1018.07 1018.38 1018.74 1019.10 1019.43 1019.71 1019.91 1020.03 1020.08 1020.10 1020.11 1020.14 1020.20
1019.80 1019.56 1019.32 1019.17 1019.13 1019.24 1019.47 1019.77 1020.03 1020.17 1020.11 1019.78 1019.17 1018.33 1017.33 1016.28 1015.32 1014.54 1014.03 1013.83 1013.92 1014.25 1014.74 1015.30 1015.85 1016.32 1016.70 1016.98 1017.19 1017.36 1017.55 1017.79 1018.07 1018.40 1018.76 1019.10 1019.40 1019.64 1019.82 1019.93 1020.00 1020.06 1020.12 1020.20
1019.84 1019.58 1019.37 1019.30 1019.40 1019.67 1020.08 1020.55 1020.97 1021.21 1021.19 1020.84 1020.15 1019.16 1017.97 1016.72 1015.53 1014.56 1013.88 1013.54 1013.55 1013.83 1014.32 1014.90 1015.48 1015.99 1016.40 1016.69 1016.90 1017.07 1017.23 1017.43 1017.68 1017.99 1018.33 1018.67 1019.00 1019.28 1019.50 1019.66 1019.79 1019.89 1019.99 1020.09
1019.95 1019.70 1019.55 1019.56 1019.78 1020.19 1020.74 1021.34 1021.85 1022.16 1022.16 1021.79 1021.03 1019.94 1018.62 1017.21 1015.87 1014.75 1013.93 1013.48 1013.39 1013.61 1014.05 1014.60 1015.17 1015.67 1016.07 1016.36 1016.55 1016.69 1016.82 1016.99 1017.21 1017.49 1017.81 1018.16 1018.50 1018.81 1019.08 1019.29 1019.47 1019.61 1019.74 1019.87
1020.12 1019.92 1019.83 1019.93 1020.24 1020.74 1021.37 1022.02 1022.57 1022.89 1022.88 1022.48 1021.68 1020.53 1019.15 1017.67 1016.26 1015.05 1014.16 1013.62 1013.45 1013.58 1013.94 1014.43 1014.93 1015.39 1015.74 1015.99 1016.15 1016.25 1016.35 1016.48 1016.67 1016.93 1017.24 1017.59 1017.94 1018.27 1018.57 1018.82 1019.04 1019.23 1019.39 1019.53
1020.32 1020.19 1020.18 1020.35 1020.70 1021.23 1021.85 1022.48 1022.99 1023.26 1023.21 1022.77 1021.95 1020.80 1019.44 1017.98 1016.59 1015.39 1014.48 1013.91 1013.67 1013.73 1014.00 1014.38 1014.80 1015.16 1015.44 1015.62 1015.72 1015.78 1015.84 1015.94 1016.10 1016.33 1016.63 1016.96 1017.32 1017.66 1017.99 1018.27 1018.53 1018.75 1018.94 1019.11
1020.51 1020.45 1020.51 1020.71 1021.07 1021.55 1022.09 1022.62 1023.01 1023.18 1023.05 1022.58 1021.77 1020.68 1019.40 1018.06 1016.78 1015.67 1014.82 1014.27 1014.01 1014.01 1014.18 1014.46 1014.76 1015.01 1015.20 1015.29 1015.33 1015.34 1015.35 1015.41 1015.53 1015.73 1016.00 1016.32 1016.66 1017.01 1017.35 1017.66 1017.95 1018.20 1018.43 1018.63
1020.64 1020.67 1020.77 1020.97 1021.27 1021.64 1022.03 1022.38 1022.60 1022.62 1022.40 1021.89 1021.12 1020.14 1019.03 1017.87 1016.78 1015.84 1015.12 1014.64 1014.40 1014.36 1014.46 1014.63 1014.81 1014.95 1015.02 1015.03 1015.00 1014.94 1014.90 1014.91 1014.99 1015.15 1015.38 1015.66 1015.98 1016.32 1016.67 1017.00 1017.31 1017.60 1017.87 1018.11
1020.72 1020.82 1020.94 1021.10 1021.28 1021.49 1021.67 1021.79 1021.79 1021.64 1021.31 1020.78 1020.08 1019.24 1018.33 1017.42 1016.58 1015.87 1015.32 1014.96 1014.78 1014.72 1014.76 1014.84 1014.91 1014.94 1014.91 1014.84 1014.72 1014.60 1014.51 1014.46 1014.49 1014.59 1014.76 1015.00 1015.29 1015.61 1015.95 1016.29 1016.63 1016.96 1017.27 1017.56
1020.80 1020.93 1021.03 1021.10 1021.14 1021.13 1021.06 1020.92 1020.69 1020.36 1019.92 1019.39 1018.77 1018.10 1017.43 1016.78 1016.22 1015.75 1015.41 1015.19 1015.07 1015.03 1015.03 1015.03 1015.01 1014.94 1014.82 1014.67 1014.48 1014.30 1014.15 1014.05 1014.01 1014.05 1014.16 1014.34 1014.58 1014.87 1015.20 1015.55 1015.92 1016.29 1016.65 1016.99
1020.90 1021.03 1021.07 1021.02 1020.87 1020.63 1020.30 1019.90 1019.45 1018.95 1018.42 1017.89 1017.37 1016.88 1016.43 1016.05 1015.75 1015.53 1015.38 1015.29 1015.24 1015.21 1015.18 1015.12 1015.02 1014.87 1014.69 1014.47 1014.23 1014.00 1013.80 1013.63 1013.53 1013.50 1013.54 1013.66 1013.85 1014.11 1014.43 1014.79 1015.19 1015.60 1016.01 1016.41
1021.03 1021.13 1021.08 1020.89 1020.54 1020.07 1019.50 1018.87 1018.21 1017.57 1016.98 1016.47 1016.05 1015.72 1015.48 1015.34 1015.26 1015.23 1015.23 1015.24 1015.23 1015.21 1015.14 1015.03 1014.87 1014.67 1014.43 1014.17 1013.90 1013.64 1013.40 1013.19 1013.03 1012.94 1012.92 1012.97 1013.12 1013.35 1013.65 1014.03 1014.46 1014.92 1015.38 1015.84
1021.17 1021.20 1021.04 1020.69 1020.16 1019.49 1018.72 1017.90 1017.11 1016.38 1015.76 1015.29 1014.96 1014.77 1014.70 1014.72 1014.80 1014.90 1014.98 1015.04 1015.04 1014.99 1014.88 1014.72 1014.52 1014.28 1014.01 1013.74 1013.46 1013.18 1012.92 1012.69 1012.49 1012.35 1012.28 1012.29 1012.40 1012.60 1012.91 1013.30 1013.76 1014.26 1014.78 1015.28
1021.22 1021.16 1020.88 1020.40 1019.72 1018.90 1017.99 1017.07 1016.19 1015.44 1014.83 1014.41 1014.17 1014.09 1014.13 1014.26 1014.42 1014.57 1014.68 1014.72 1014.69 1014.58 1014.41 1014.20 1013.96 1013.70 1013.43 1013.16 1012.89 1012.63 1012.37 1012.13 1011.92 1011.75 1011.65 1011.63 1011.71 1011.91 1012.22 1012.63 1013.12 1013.66 1014.22 1014.76
1021.07 1020.91 1020.53 1019.94 1019.16 1018.26 1017.29 1016.34 1015.47 1014.74 1014.20 1013.85 1013.69 1013.69 1013.81 1013.98 1014.15 1014.28 1014.35 1014.32 1014.21 1014.03 1013.79 1013.53 1013.25 1012.98 1012.72 1012.48 1012.24 1012.00 1011.77 1011.54 1011.33 1011.16 1011.04 1011.02 1011.10 1011.30 1011.62 1012.05 1012.56 1013.13 1013.72 1014.28
1020.63 1020.38 1019.91 1019.26 1018.44 1017.53 1016.58 1015.67 1014.88 1014.24 1013.80 1013.55 1013.47 1013.53 1013.68 1013.84 1013.98 1014.05 1014.03 1013.91 1013.70 1013.43 1013.12 1012.80 1012.50 1012.22 1011.98 1011.76 1011.56 1011.36 1011.16 1010.96 1010.77 1010.60 1010.50 1010.48 1010.56 1010.77 1011.11 1011.56 1012.09 1012.67 1013.27 1013.84
1019.85 1019.52 1019.00 1018.32 1017.53 1016.67 1015.81 1015.03 1014.37 1013.87 1013.56 1013.43 1013.44 1013.54 1013.69 1013.83 1013.91 1013.89 1013.76 1013.53 1013.22 1012.86 1012.48 1012.12 1011.80 1011.53 1011.31 1011.12 1010.95 1010.78 1010.61 1010.43 1010.26 1010.12 1010.03 1010.02 1010.12 1010.34 1010.69 1011.15 1011.68 1012.27 1012.86 1013.42
1018.78 1018.38 1017.84 1017.19 1016.46 1015.71 1015.00 1014.38 1013.90 1013.58 1013.42 1013.40 1013.49 1013.64 1013.79 1013.89 1013.90 1013.79 1013.57 1013.25 1012.85 1012.43 1012.00 1011.61 1011.27 1011.00 1010.78 1010.60 1010.45 1010.30 1010.14 1009.98 1009.83 1009.70 1009.62 1009.63 1009.75 1009.99 1010.34 1010.80 1011.33 1011.90 1012.46 1013.00
1017.51 1017.08 1016.55 1015.95 1015.33 1014.72 1014.19 1013.76 1013.47 1013.33 1013.32 1013.42 1013.59 1013.77 1013.92 1013.99 1013.94 1013.76 1013.47 1013.09 1012.64 1012.17 1011.71 1011.30 1010.95 1010.67 1010.45 1010.27 1010.10 1009.95 1009.78 1009.62 1009.46 1009.33 1009.27 1009.29 1009.42 1009.67 1010.03 1010.49 1011.00 1011.54 1012.07 1012.56
1016.23 1015.78 1015.29 1014.77 1014.27 1013.83 1013.47 1013.23 1013.12 1013.14 1013.26 1013.46 1013.69 1013.90 1014.04 1014.08 1014.00 1013.79 1013.46 1013.05 1012.58 1012.09 1011.63 1011.21 1010.86 1010.56 1010.31 1010.10 1009.90 1009.71 1009.51 1009.32 1009.14 1009.01 1008.94 1008.97 1009.12 1009.37 1009.73 1010.18 1010.67 1011.18 1011.67 1012.12
1015.11 1014.68 1014.24 1013.82 1013.44 1013.14 1012.95 1012.87 1012.90 1013.04 1013.26 1013.53 1013.79 1014.01 1014.14 1014.16 1014.06 1013.84 1013.50 1013.09 1012.63 1012.16 1011.71 1011.30 1010.93 1010.61 1010.32 1010.06 1009.80 1009.55 1009.29 1009.05 1008.84 1008.69 1008.62 1008.65 1008.80 1009.07 1009.43 1009.87 1010.35 1010.83 1011.28 1011.68
Thickness
5569 5562 5556 5558 5560 5564 5563 5561 5559 5564 5569 5570 5572 5576 5585 5588 5587 5587 5589 5591 5595 5599 5601 5602 5603 5603 5603 5603 5603 5604 5604 5605 5606 5605 5605 5605 5606 5607 5608 5609 5610 5612 5613 5615
5561 5558 5561 5564 5564 5562 5561 5558 5556 5561 5566 5568 5567 5572 5582 5585 5586 5587 5588 5590 5592 5595 5596 5597 5597 5597 5597 5597 5597 5597 5598 5598 5598 5598 5598 5598 5598 5598 5600 5601 5602 5603 5604 5606
5561 5561 5563 5563 5560 5559 5556 5554 5555 5557 5560 5562 5562 5573 5581 5586 5585 5587 5587 5589 5590 5593 5593 5593 5592 5592 5591 5591 5591 5593 5592 5592 5592 5592 5591 5591 5590 5590 5591 5592 5593 5594 5595 5597
5555 5558 5560 5559 5557 5557 5554 5556 5557 5556 5551 5548 5554 5558 5575 5579 5581 5586 5585 5584 5586 5588 5589 5588 5588 5587 5586 5586 5586 5586 5586 5585 5585 5585 5584 5584 5583 5582 5582 5583 5583 5585 5586 5587
5553 5554 5555 5555 5555 5554 5552 5553 5551 5549 5547 5544 5546 5550 5567 5573 5580 5585 5584 5583 5582 5583 5583 5584 5584 5584 5583 5581 5579 5579 5579 5579 5579 5578 5577 5576 5576 5575 5574 5574 5575 5576 5577 5578
5550 5551 5551 5552 5552 5551 5549 5548 5543 5534 5535 5544 5547 5544 5558 5567 5579 5582 5583 5581 5580 5580 5579 5579 5579 5578 5577 5575 5574 5573 5573 5572 5572 5571 5570 5569 5568 5568 5567 5567 5567 5567 5568 5568
5546 5548 5548 5548 5549 5547 5544 5537 5529 5532 5525 5538 5541 5541 5555 5573 5576 5577 5578 5578 5576 5575 5573 5573 5572 5571 5570 5569 5568 5567 5566 5566 5565 5564 5563 5563 5561 5560 5560 5559 5558 5558 5558 5559
5539 5539 5543 5543 5543 5540 5536 5535 5528 5531 5528 5527 5533 5537 5558 5569 5571 5572 5572 5572 5572 5569 5567 5567 5566 5565 5564 5563 5562 5560 5559 5559 5558 5557 5557 5556 5554 5553 5552 5551 5550 5549 5549 5550
5532 5534 5538 5539 5539 5539 5533 5524 5525 5512 5510 5514 5529 5537 5554 5568 5568 5568 5568 5567 5565 5562 5561 5560 5559 5558 5557 5556 5555 5554 5553 5553 5552 5551 5550 5548 5547 5545 5544 5543 5542 5541 5540 5540
5532 5528 5531 5531 5534 5532 5531 5520 5510 5511 5518 5522 5530 5534 5545 5560 5561 5561 5560 5559 5558 5555 5553 5553 5551 5550 5550 5549 5548 5547 5546 5546 5545 5543 5542 5541 5539 5538 5536 5534 5533 5531 5530 5530
5525 5520 5520 5523 5524 5524 5520 5518 5512 5502 5505 5510 5515 5538 5552 5553 5555 5553 5551 5550 5549 5548 5546 5545 5544 5542 5541 5540 5539 5538 5538 5537 5536 5535 5533 5532 5530 5529 5527 5525 5524 5522 5521 5519
5514 5504 5505 5514 5519 5518 5516 5514 5506 5509 5504 5491 5495 5528 5553 5547 5544 5544 5543 5543 5542 5541 5539 5537 5536 5534 5533 5531 5530 5530 5529 5529 5528 5526 5525 5523 5521 5519 5517 5516 5515 5513 5511 5510
5509 5503 5505 5514 5511 5508 5508 5506 5501 5499 5492 5482 5492 5527 5544 5539 5539 5538 5537 5535 5533 5532 5531 5529 5527 5525 5524 5523 5522 5521 5521 5520 5519 5517 5515 5513 5511 5509 5508 5506 5505 5503 5501 5500
5507 5498 5500 5511 5514 5506 5502 5502 5495 5492 5488 5487 5497 5520 5534 5534 5532 5530 5528 5526 5524 5523 5522 5521 5518 5517 5516 5515 5514 5513 5512 5511 5509 5507 5504 5502 5501 5500 5498 5496 5495 5493 5491 5489
5497 5492 5491 5495 5499 5496 5498 5501 5494 5491 5494 5496 5509 5510 5528 5524 5521 5519 5518 5517 5516 5515 5514 5513 5510 5508 5507 5506 5504 5503 5502 5501 5499 5497 5495 5493 5492 5490 5488 5486 5485 5483 5481 5479
5484 5484 5483 5488 5492 5487 5491 5500 5496 5495 5496 5496 5502 5511 5520 5514 5510 5508 5507 5507 5507 5507 5507 5505 5504 5501 5499 5497 5496 5494 5493 5492 5489 5487 5486 5485 5482 5480 5478 5477 5474 5472 5470 5468
5470 5471 5473 5477 5480 5483 5490 5506 5502 5496 5496 5496 5498 5510 5509 5505 5504 5502 5500 5499 5498 5499 5498 5497 5495 5493 5491 5489 5487 5485 5484 5482 5480 5478 5476 5474 5472 5470 5468 5467 5464 5462 5460 5458
5465 5462 5462 5464 5467 5473 5510 5508 5504 5498 5497 5492 5496 5498 5496 5496 5496 5494 5492 5490 5489 5489 5489 5488 5486 5484 5482 5480 5478 5476 5474 5472 5470 5468 5466 5464 5462 5461 5459 5456 5454 5453 5451 5449
5463 5460 5455 5454 5454 5470 5492 5497 5491 5486 5489 5489 5487 5488 5486 5484 5484 5484 5486 5484 5482 5481 5480 5478 5476 5475 5473 5470 5468 5466 5464 5462 5460 5459 5457 5455 5453 5452 5450 5448 5446 5444 5442 5441
5448 5449 5447 5445 5448 5459 5491 5490 5484 5482 5481 5487 5480 5478 5475 5473 5471 5477 5480 5475 5473 5471 5470 5468 5467 5465 5462 5461 5458 5455 5454 5452 5451 5450 5449 5447 5445 5443 5442 5441 5439 5436 5434 5433
5435 5434 5436 5438 5440 5456 5474 5474 5473 5468 5477 5477 5472 5470 5466 5463 5466 5469 5468 5466 5464 5462 5460 5459 5457 5454 5453 5450 5447 5445 5443 5443 5443 5441 5439 5438 5436 5435 5434 5432 5430 5428 5426 5424
5431 5426 5427 5429 5430 5451 5466 5459 5458 5463 5465 5464 5462 5460 5457 5456 5456 5456 5456 5455 5454 5451 5450 5449 5445 5444 5442 5439 5436 5435 5434 5435 5433 5431 5429 5428 5427 5426 5426 5423 5422 5420 5418 5416
5426 5433 5432 5436 5450 5456 5452 5452 5453 5450 5449 5450 5449 5450 5447 5445 5445 5446 5445 5444 5442 5441 5439 5437 5435 5433 5431 5429 5426 5425 5426 5424 5423 5421 5420 5419 5418 5417 5417 5415 5414 5412 5410 5408
5417 5421 5419 5421 5434 5439 5439 5439 5440 5439 5438 5439 5439 5438 5436 5434 5435 5433 5433 5432 5431 5430 5428 5426 5424 5422 5422 5420 5418 5416 5416 5415 5413 5411 5411 5410 5409 5409 5408 5407 5406 5405 5403 5402
5414 5408 5407 5412 5423 5425 5433 5432 5432 5430 5428 5427 5427 5426 5424 5423 5423 5422 5422 5421 5419 5419 5417 5415 5413 5413 5413 5412 5410 5409 5407 5405 5403 5403 5402 5402 5401 5401 5400 5399 5399 5399 5398 5397
5406 5404 5403 5415 5420 5416 5422 5425 5422 5419 5418 5418 5416 5415 5414 5412 5411 5411 5410 5409 5408 5407 5406 5404 5403 5403 5403 5402 5402 5401 5399 5397 5395 5395 5394 5393 5393 5392 5392 5391 5391 5392 5391 5392